Hourly Weather Sobiekursk

Today, 27 July, Tuesday

Time Temperature Precipitation Wind Pressure Humidity
00:00 +20°C° 0 mm 2 mps 751 mmHg 89%
01:00 +20°C° 0 mm 2 mps 751 mmHg 88%
02:00 +19°C° 0 mm 2 mps 751 mmHg 87%
03:00 +19°C° 0 mm 2 mps 751 mmHg 86%
04:00 +19°C° 0 mm 2 mps 750 mmHg 85%
05:00 +20°C° 0.1 mm 2 mps 751 mmHg 81%
06:00 +23°C° 0.1 mm 2 mps 751 mmHg 77%
07:00 +24°C° 0.1 mm 2 mps 751 mmHg 73%
08:00 +26°C° 0 mm 2 mps 751 mmHg 67%
09:00 +27°C° 0 mm 2 mps 751 mmHg 61%
10:00 +29°C° 0 mm 2 mps 751 mmHg 54%
11:00 +30°C° 0 mm 2 mps 751 mmHg 51%
12:00 +31°C° 0 mm 3 mps 751 mmHg 49%
13:00 +33°C° 0 mm 3 mps 751 mmHg 46%
14:00 +31°C° 0 mm 3 mps 751 mmHg 48%
15:00 +31°C° 0 mm 3 mps 751 mmHg 50%
16:00 +30°C° 0 mm 3 mps 750 mmHg 52%
17:00 +29°C° 0 mm 3 mps 750 mmHg 56%
18:00 +28°C° 0 mm 2 mps 751 mmHg 60%
19:00 +27°C° 0 mm 2 mps 751 mmHg 64%
20:00 +26°C° 0 mm 2 mps 751 mmHg 67%
21:00 +25°C° 0 mm 2 mps 751 mmHg 69%
22:00 +24°C° 0 mm 1 mps 752 mmHg 72%
23:00 +23°C° 0 mm 1 mps 751 mmHg 72%

Tomorrow, 28 July, Wednesday

Time Temperature Precipitation Wind Pressure Humidity
00:00 +23°C° 0 mm 1 mps 751 mmHg 72%
01:00 +23°C° 0 mm 1 mps 751 mmHg 72%
02:00 +22°C° 0 mm 1 mps 751 mmHg 73%
03:00 +22°C° 0 mm 1 mps 751 mmHg 74%
04:00 +21°C° 0 mm 1 mps 751 mmHg 75%
05:00 +23°C° 0 mm 1 mps 751 mmHg 70%
06:00 +25°C° 0 mm 1 mps 751 mmHg 66%
07:00 +26°C° 0 mm 1 mps 751 mmHg 61%
08:00 +28°C° 0 mm 1 mps 751 mmHg 56%
09:00 +29°C° 0 mm 1 mps 751 mmHg 50%
10:00 +31°C° 0 mm 1 mps 751 mmHg 44%
11:00 +31°C° 0 mm 2 mps 750 mmHg 43%
12:00 +31°C° 0 mm 2 mps 750 mmHg 42%
13:00 +32°C° 0 mm 2 mps 750 mmHg 40%
14:00 +28°C° 6.7 mm 3 mps 750 mmHg 58%
15:00 +25°C° 6.7 mm 5 mps 750 mmHg 76%
16:00 +21°C° 6.7 mm 6 mps 750 mmHg 95%
17:00 +21°C° 2.3 mm 5 mps 750 mmHg 94%
18:00 +21°C° 2.3 mm 4 mps 750 mmHg 94%
19:00 +20°C° 2.3 mm 3 mps 750 mmHg 93%
20:00 +20°C° 0.1 mm 2 mps 750 mmHg 93%
21:00 +20°C° 0.1 mm 2 mps 751 mmHg 93%
22:00 +21°C° 0.1 mm 1 mps 751 mmHg 93%
23:00 +20°C° 0 mm 1 mps 751 mmHg 93%

Day after tomorrow, 29 July, Thursday

Time Temperature Precipitation Wind Pressure Humidity
00:00 +19°C° 0 mm 2 mps 751 mmHg 94%
01:00 +19°C° 0 mm 2 mps 751 mmHg 94%
02:00 +19°C° 0 mm 2 mps 751 mmHg 95%
03:00 +18°C° 0 mm 2 mps 751 mmHg 95%
04:00 +18°C° 0 mm 2 mps 751 mmHg 95%
05:00 +19°C° 0 mm 2 mps 751 mmHg 90%
06:00 +20°C° 0 mm 3 mps 751 mmHg 86%
07:00 +21°C° 0 mm 3 mps 751 mmHg 81%
08:00 +24°C° 0 mm 3 mps 751 mmHg 73%
09:00 +25°C° 0 mm 3 mps 751 mmHg 66%
10:00 +27°C° 0 mm 3 mps 752 mmHg 59%
11:00 +27°C° 0 mm 4 mps 751 mmHg 54%
12:00 +28°C° 0 mm 4 mps 751 mmHg 50%
13:00 +29°C° 0 mm 4 mps 751 mmHg 46%
14:00 +29°C° 0 mm 4 mps 751 mmHg 46%
15:00 +29°C° 0 mm 4 mps 750 mmHg 45%
16:00 +29°C° 0 mm 4 mps 750 mmHg 45%
17:00 +28°C° 0 mm 3 mps 750 mmHg 50%
18:00 +27°C° 0 mm 3 mps 750 mmHg 56%
19:00 +25°C° 0 mm 2 mps 750 mmHg 61%
20:00 +24°C° 0 mm 2 mps 750 mmHg 62%
21:00 +23°C° 0 mm 1 mps 750 mmHg 63%
22:00 +22°C° 0 mm 1 mps 750 mmHg 64%
23:00 +22°C° 0 mm 1 mps 750 mmHg 63%

30 July, Friday

Time Temperature Precipitation Wind Pressure Humidity
00:00 +21°C° 0 mm 2 mps 750 mmHg 63%
01:00 +21°C° 0 mm 2 mps 750 mmHg 63%
02:00 +20°C° 0 mm 2 mps 750 mmHg 66%
03:00 +20°C° 0 mm 2 mps 749 mmHg 69%
04:00 +19°C° 0 mm 2 mps 749 mmHg 73%
05:00 +20°C° 0.2 mm 3 mps 749 mmHg 74%
06:00 +21°C° 0.2 mm 3 mps 749 mmHg 76%
07:00 +22°C° 0.2 mm 4 mps 749 mmHg 77%
08:00 +22°C° 0.1 mm 3 mps 749 mmHg 77%
09:00 +22°C° 0.1 mm 3 mps 749 mmHg 77%
10:00 +24°C° 0.1 mm 3 mps 749 mmHg 77%
11:00 +24°C° 0 mm 3 mps 749 mmHg 73%
12:00 +25°C° 0 mm 3 mps 749 mmHg 69%
13:00 +25°C° 0 mm 2 mps 748 mmHg 66%
14:00 +26°C° 0 mm 3 mps 748 mmHg 61%
15:00 +26°C° 0 mm 4 mps 748 mmHg 57%
16:00 +27°C° 0 mm 5 mps 747 mmHg 53%
17:00 +26°C° 0 mm 4 mps 747 mmHg 56%
18:00 +24°C° 0 mm 3 mps 747 mmHg 60%
19:00 +23°C° 0 mm 2 mps 747 mmHg 64%
20:00 +23°C° 0 mm 2 mps 747 mmHg 62%
21:00 +21°C° 0 mm 2 mps 747 mmHg 60%
22:00 +20°C° 0 mm 2 mps 748 mmHg 58%
23:00 +20°C° 0 mm 2 mps 748 mmHg 59%

31 July, Saturday

Time Temperature Precipitation Wind Pressure Humidity
00:00 +19°C° 0 mm 2 mps 748 mmHg 61%
01:00 +19°C° 0 mm 2 mps 748 mmHg 62%
02:00 +19°C° 0 mm 2 mps 748 mmHg 61%
03:00 +19°C° 0 mm 2 mps 748 mmHg 59%
04:00 +19°C° 0 mm 2 mps 748 mmHg 58%
05:00 +19°C° 0 mm 2 mps 748 mmHg 59%
06:00 +19°C° 0 mm 2 mps 748 mmHg 60%
07:00 +20°C° 0 mm 2 mps 748 mmHg 61%
08:00 +21°C° 0 mm 3 mps 748 mmHg 57%
09:00 +23°C° 0 mm 4 mps 748 mmHg 53%
10:00 +25°C° 0 mm 5 mps 748 mmHg 50%
11:00 +26°C° 0 mm 5 mps 748 mmHg 48%
12:00 +26°C° 0 mm 5 mps 748 mmHg 46%
13:00 +27°C° 0 mm 5 mps 748 mmHg 44%
14:00 +26°C° 0 mm 5 mps 748 mmHg 45%
15:00 +26°C° 0 mm 5 mps 748 mmHg 46%
16:00 +26°C° 0 mm 4 mps 748 mmHg 47%
17:00 +24°C° 0 mm 3 mps 748 mmHg 51%
18:00 +23°C° 0 mm 2 mps 748 mmHg 56%
19:00 +22°C° 0 mm 1 mps 748 mmHg 60%
20:00 +21°C° 0 mm 2 mps 748 mmHg 60%
21:00 +20°C° 0 mm 2 mps 748 mmHg 59%
22:00 +20°C° 0 mm 2 mps 748 mmHg 59%
23:00 +20°C° 0 mm 2 mps 748 mmHg 60%

1 August, Sunday

Time Temperature Precipitation Wind Pressure Humidity
00:00 +20°C° 0 mm 2 mps 748 mmHg 61%
01:00 +20°C° 0 mm 2 mps 748 mmHg 62%
02:00 +19°C° 0 mm 2 mps 748 mmHg 66%
03:00 +19°C° 0 mm 2 mps 748 mmHg 70%
04:00 +18°C° 0 mm 2 mps 748 mmHg 74%
05:00 +20°C° 0 mm 2 mps 748 mmHg 69%
06:00 +21°C° 0 mm 3 mps 748 mmHg 64%
07:00 +22°C° 0 mm 3 mps 748 mmHg 59%
08:00 +24°C° 0 mm 3 mps 748 mmHg 53%
09:00 +25°C° 0 mm 2 mps 749 mmHg 47%
10:00 +26°C° 0 mm 2 mps 749 mmHg 41%
11:00 +27°C° 0 mm 2 mps 749 mmHg 40%
12:00 +28°C° 0 mm 2 mps 748 mmHg 39%
13:00 +28°C° 0 mm 2 mps 748 mmHg 37%
14:00 +28°C° 0 mm 2 mps 748 mmHg 40%
15:00 +27°C° 0 mm 1 mps 748 mmHg 43%
16:00 +27°C° 0 mm 1 mps 748 mmHg 47%
17:00 +24°C° 0.4 mm 1 mps 748 mmHg 59%
18:00 +22°C° 0.4 mm 1 mps 748 mmHg 72%
19:00 +19°C° 0.4 mm 2 mps 748 mmHg 84%
20:00 +20°C° 0.1 mm 1 mps 748 mmHg 84%
21:00 +20°C° 0.1 mm 1 mps 748 mmHg 84%
22:00 +20°C° 0.1 mm 1 mps 748 mmHg 84%
23:00 +19°C° 0 mm 1 mps 748 mmHg 84%
Show more